Marion, OH

2:44 AM EDT on March 27, 2017 (GMT -0400)
Marion Municipal

Weather History for KMNN - October, 2013

Change the Weather History Date:

Monday, October 21, 2013

  Actual Average (KDLZ) Record (KDLZ)
Temperature  
Mean Temperature 54 °F -  
Max Temperature 64 °F 59 °F 85 °F (1953)
Min Temperature 44 °F 37 °F 18 °F (1952)
Degree Days  
Heating Degree Days 11    
Growing Degree Days 4 (Base 50)    
Moisture  
Dew Point 41 °F    
Average Humidity 68    
Maximum Humidity 93    
Minimum Humidity 43    
Precipitation  
Precipitation 0.14 in - - ()
Sea Level Pressure  
Sea Level Pressure 29.94 in    
Wind  
Wind Speed 12 mph (SW)    
Max Wind Speed 20 mph    
Max Gust Speed 26 mph    
Visibility 9 miles    
Events Rain    
Averages and records for this station are not official NWS values.
T = Trace of Precipitation, MM = Missing Value Source: NWS Daily Summary

Daily Weather History Graph

Daily Weather History Graph

Search for Another Location

Airport or City:

Trip Planner

Search our weather history database for the weather conditions in past years. The results will help you decide how hot, cold, wet, or windy it might be!

Date:

Astronomy

Oct. 21, 2013 Rise Set
Actual Time 7:50 AM EDT 6:42 PM EDT
Civil Twilight 7:22 AM EDT 7:10 PM EDT
Nautical Twilight 6:50 AM EDT 7:42 PM EDT
Astronomical Twilight 6:18 AM EDT 8:14 PM EDT
Moon 8:34 PM EDT (10/21) 10:24 AM EDT (10/21)
Length of Visible Light 11h 48m
Length of Day
10h 52m
Waning Gibbous, 93% of the Moon is Illuminated
Oct 21
Waning Gibbous
Oct 26
Last Quarter
Nov 3
New
Nov 10
First Quarter
Nov 17
Full

Hourly Weather History & Observations

Time (EDT) Temp. Windchill Dew Point Humidity Pressure Visibility Wind Dir Wind Speed Gust Speed Precip Events Conditions
12:53 AM 46.0 °F 41.4 °F 37.9 °F 73% 29.99 in 10.0 mi SSW 9.2 mph - N/A   Clear
1:53 AM 46.9 °F - 39.0 °F 74% 29.98 in 10.0 mi South 10.4 mph - N/A   Mostly Cloudy
2:53 AM 46.0 °F 41.9 °F 37.9 °F 73% 29.99 in 10.0 mi SSW 8.1 mph - N/A   Clear
3:53 AM 45.0 °F 40.1 °F 37.9 °F 76% 29.99 in 10.0 mi South 9.2 mph - N/A   Clear
4:53 AM 45.0 °F 39.3 °F 37.9 °F 76% 29.99 in 10.0 mi South 11.5 mph - N/A   Clear
5:53 AM 44.1 °F 37.7 °F 37.9 °F 79% 29.98 in 10.0 mi South 12.7 mph - N/A   Clear
6:53 AM 44.1 °F 37.7 °F 37.0 °F 76% 29.99 in 10.0 mi South 12.7 mph - N/A   Clear
7:53 AM 45.0 °F 37.9 °F 37.0 °F 74% 29.98 in 10.0 mi SSW 16.1 mph - N/A   Clear
8:53 AM 46.9 °F - 37.9 °F 71% 29.99 in 10.0 mi South 16.1 mph - N/A   Clear
9:53 AM 51.1 °F - 39.0 °F 63% 29.99 in 10.0 mi SSW 12.7 mph - N/A   Clear
10:53 AM 55.0 °F - 39.9 °F 57% 29.97 in 10.0 mi SW 12.7 mph - N/A   Clear
11:53 AM 57.9 °F - 43.0 °F 58% 29.96 in 10.0 mi SW 12.7 mph 21.9 mph N/A   Clear
12:53 PM 62.1 °F - 43.0 °F 50% 29.94 in 10.0 mi SSW 13.8 mph - N/A   Clear
1:53 PM 61.0 °F - 43.0 °F 52% 29.90 in 10.0 mi SSW 18.4 mph 24.2 mph N/A   Clear
2:53 PM 64.0 °F - 41.0 °F 43% 29.88 in 10.0 mi SW 19.6 mph 26.5 mph N/A   Clear
3:53 PM 63.0 °F - 39.9 °F 43% 29.86 in 10.0 mi SW 17.3 mph 26.5 mph N/A   Clear
4:53 PM 62.1 °F - 39.9 °F 44% 29.86 in 10.0 mi SW 17.3 mph 23.0 mph N/A   Mostly Cloudy
5:53 PM 61.0 °F - 41.0 °F 48% 29.86 in 10.0 mi SW 17.3 mph 26.5 mph N/A   Overcast
6:53 PM 59.0 °F - 41.0 °F 51% 29.88 in 10.0 mi SW 12.7 mph - N/A   Overcast
7:53 PM 52.0 °F - 48.0 °F 86% 29.91 in 8.0 mi WNW 12.7 mph - 0.00 in Rain Light Rain
8:53 PM 51.1 °F - 48.0 °F 89% 29.90 in 7.0 mi WSW 9.2 mph - 0.06 in Rain Light Rain
9:53 PM 50.0 °F - 48.0 °F 93% 29.91 in 4.0 mi WNW 12.7 mph 20.7 mph 0.06 in Rain Light Rain
10:28 PM 50.0 °F - 46.4 °F 87% 29.90 in 6.0 mi West 12.7 mph 18.4 mph 0.01 in   Overcast
10:53 PM 48.0 °F - 45.0 °F 89% 29.92 in 6.0 mi WNW 11.5 mph - 0.01 in Rain Light Rain
11:53 PM 46.0 °F 40.2 °F 39.9 °F 79% 29.92 in 9.0 mi WNW 12.7 mph - 0.01 in Rain Light Rain